To NAV CANADA Home Page Login to a new session Search on AWWS site Feedback and Comments Disclaimer Vers la page française équivalente Tips FAQ What's new on the site To the Forecasts and Observations / NOTAM section To "File a Flight Plan" website Publications and other links Update of the User's profile FIC Telephone Numbers My Weather Data Folder Route Weather Data Regional Weather Data Local Weather Data To the Forecasts and Observations / NOTAM section
Request Generated 09/27/2016 at 23:58:46 UTC . Weather information available at that time is displayed.

METAR/TAF

KINDERSLEY/KINDERSLEY REGIONAL/SK    

METAR CYKY 272300Z 34020G27KT 15SM FEW060 18/05 A3001 RMK CU1 CU TR
SLP169 DENSITY ALT 3000FT=
METAR CYKY 272200Z 33019G26KT 15SM FEW100 19/07 A2995 RMK AC1 AC TR
SLP149 DENSITY ALT 3200FT=
LWIS CYKY 272100Z AUTO 33019G27KT 20/08=

CYKY - No TAF is issued for this station

Your time UTC time
Weather data provided by Environment Canada and NAV CANADA